Location: Lake Crest
(37.6062°N, 88.9176°W)
Time: 08:58:05
(UTC+00:00)

CZ-4C R/B - Pass Details

Date: 15 December 2019
Orbit: 647 x 1355 km, 63.4° (Epoch: 17 January)

Event Time Altitude Azimuth Distance (km) Brightness Sun altitude
Exits shadow 10:05:56 35° 188° (S) 1,985 4.0 -34.2°
Drops below altitude 10° 10:10:45 10° 170° (S) 3,389 5.4 -33.3°
Sets 10:13:45 0° 166° (SSE) 4,367 6.1 -32.7°
